Location: Tryon
(41.5533°N, 100.9574°W)
Time: 00:52:14
(UTC-05:00)

N. Korean satellite - Visible Passes

Search period start: 18 October 2019 00:00
Search period end: 28 October 2019 00:00
Orbit: 455 x 508 km, 97.2° (Epoch: 16 October)

Date Brightness Start Highest point End Pass type
(mag) Time Alt. Az. Time Alt. Az. Time Alt. Az.
18 Oct 9.4 06:58:44 10° NE 07:01:41 23° E 07:04:39 10° SSE visible
19 Oct 10.3 06:34:50 10° ENE 06:36:14 12° E 06:37:37 10° ESE visible
20 Oct 10.1 19:51:30 10° SW 19:53:25 14° W 19:55:22 10° WNW visible
21 Oct 8.3 07:15:50 10° NNE 07:19:15 39° E 07:22:42 10° SSE visible
21 Oct 8.9 19:24:56 10° SSW 19:27:58 29° W 19:31:02 10° NW visible
22 Oct 9.7 06:51:08 10° NE 06:53:50 19° E 06:56:33 10° SE visible
24 Oct 7.0 07:33:06 10° NNE 07:36:45 69° E 07:40:25 10° S visible
24 Oct 9.8 19:43:06 10° SW 19:45:30 18° W 19:47:56 10° NW visible
25 Oct 8.7 07:08:05 10° NNE 07:11:24 32° E 07:14:43 10° SSE visible
25 Oct 8.3 19:16:51 10° SSW 19:20:03 37° W 19:23:19 10° NNW visible
26 Oct 10.0 06:43:37 10° NE 06:45:57 16° E 06:48:18 10° SE visible
27 Oct 10.4 20:02:08 10° WSW 20:03:04 11° W 20:04:00 10° WNW visible
